| time (UTC) | temp F | wind direction | speed knots | gust knots | rain 1hr in | rain 24hr in | rain mn in | humidity % | barometer mb |
| 20260507043026 | 57 | 32 | 0.0 | 0.9 | 0.00 | 0.00 | 0.00 | 95 | 1013.6 |
| 20260507042521 | 58 | 24 | 0.0 | 0.0 | 0.00 | 0.00 | 0.00 | 95 | 1013.6 |
| 20260507042017 | 58 | 28 | 0.0 | 0.0 | 0.00 | 0.00 | 0.00 | 95 | 1013.3 |
| 20260507041514 | 58 | 19 | 0.0 | 0.9 | 0.00 | 0.00 | 0.00 | 94 | 1013.3 |
| 20260507041011 | 58 | 18 | 0.0 | 0.0 | 0.00 | 0.00 | 0.00 | 94 | 1013.3 |
| 20260507040507 | 59 | 319 | 0.0 | 0.0 | 0.00 | 0.00 | 0.00 | 94 | 1013.3 |
| 20260507040003 | 59 | 319 | 0.0 | 0.0 | 0.00 | 0.00 | 0.00 | 93 | 1013.3 |
| 20260507035500 | 59 | 319 | 0.0 | 0.0 | 0.00 | 0.00 | 0.00 | 93 | 1013.3 |
| 20260507034956 | 59 | 319 | 0.0 | 0.0 | 0.00 | 0.00 | 0.00 | 93 | 1013.3 |
| 20260507034453 | 59 | 319 | 0.0 | 0.0 | 0.00 | 0.00 | 0.00 | 93 | 1013.3 |
| 20260507033951 | 60 | 319 | 0.0 | 0.0 | 0.00 | 0.00 | 0.00 | 92 | 1013.3 |
| 20260507033449 | 60 | 319 | 0.0 | 0.0 | 0.00 | 0.00 | 0.00 | 91 | 1012.9 |
| 20260507032946 | 60 | 319 | 0.0 | 0.0 | 0.00 | 0.00 | 0.00 | 90 | 1012.9 |
| 20260507032443 | 60 | 319 | 0.0 | 0.0 | 0.00 | 0.00 | 0.00 | 89 | 1012.9 |
| 20260507031939 | 60 | 320 | 0.0 | 0.0 | 0.00 | 0.00 | 0.00 | 89 | 1012.9 |
| 20260507031435 | 60 | 319 | 0.0 | 0.0 | 0.00 | 0.00 | 0.00 | 88 | 1012.9 |
| 20260507030932 | 61 | 246 | 0.0 | 0.0 | 0.00 | 0.00 | 0.00 | 87 | 1012.6 |
| 20260507030429 | 61 | 242 | 0.0 | 0.0 | 0.00 | 0.00 | 0.00 | 87 | 1012.9 |
| 20260507025926 | 61 | 242 | 0.0 | 0.0 | 0.00 | 0.00 | 0.00 | 85 | 1012.6 |
| 20260507025423 | 62 | 242 | 0.9 | 0.9 | 0.00 | 0.00 | 0.00 | 85 | 1012.6 |
| 20260507024921 | 62 | 248 | 0.0 | 0.0 | 0.00 | 0.00 | 0.00 | 84 | 1012.6 |
| 20260507024419 | 62 | 249 | 0.0 | 0.0 | 0.00 | 0.00 | 0.00 | 83 | 1012.6 |
| 20260507023914 | 63 | 298 | 0.0 | 0.0 | 0.00 | 0.00 | 0.00 | 81 | 1012.6 |
| 20260507023411 | 63 | 229 | 0.0 | 0.0 | 0.00 | 0.00 | 0.00 | 81 | 1012.6 |
| 20260507022908 | 63 | 234 | 0.0 | 0.0 | 0.00 | 0.00 | 0.00 | 80 | 1012.6 |
| 20260507022405 | 64 | 211 | 0.0 | 0.0 | 0.00 | 0.00 | 0.00 | 79 | 1012.6 |
| 20260507021901 | 64 | 218 | 0.0 | 0.0 | 0.00 | 0.00 | 0.00 | 78 | 1012.6 |
| 20260507021356 | 64 | 230 | 0.0 | 0.0 | 0.00 | 0.00 | 0.00 | 77 | 1012.6 |
| 20260507020854 | 65 | 219 | 0.0 | 0.0 | 0.00 | 0.00 | 0.00 | 76 | 1012.6 |
| 20260507020351 | 65 | 224 | 0.0 | 0.0 | 0.00 | 0.00 | 0.00 | 75 | 1012.1 |
| 20260507015848 | 65 | 239 | 0.9 | 1.7 | 0.00 | 0.00 | 0.00 | 73 | 1012.1 |
| 20260507015346 | 65 | 233 | 0.9 | 1.7 | 0.00 | 0.00 | 0.00 | 73 | 1012.1 |
| 20260507014842 | 65 | 260 | 0.9 | 0.9 | 0.00 | 0.00 | 0.00 | 72 | 1012.1 |
| 20260507014339 | 65 | 224 | 0.0 | 0.0 | 0.00 | 0.00 | 0.00 | 72 | 1012.1 |
| 20260507013835 | 65 | 195 | 0.0 | 0.0 | 0.00 | 0.00 | 0.00 | 72 | 1012.1 |
| 20260507013332 | 66 | 244 | 0.0 | 0.0 | 0.00 | 0.00 | 0.00 | 71 | 1012.1 |
| 20260507012830 | 66 | 235 | 2.6 | 4.3 | 0.00 | 0.00 | 0.00 | 71 | 1012.1 |
| 20260507012326 | 66 | 246 | 1.7 | 2.6 | 0.00 | 0.00 | 0.00 | 71 | 1012.1 |
| 20260507011823 | 66 | 234 | 2.6 | 2.6 | 0.00 | 0.00 | 0.00 | 70 | 1012.1 |
| 20260507011320 | 66 | 236 | 2.6 | 4.3 | 0.00 | 0.00 | 0.00 | 69 | 1012.1 |
| 20260507010820 | 66 | 139 | 0.0 | 0.0 | 0.00 | 0.00 | 0.00 | 70 | 1012.6 |
| 20260507010315 | 66 | 231 | 0.9 | 1.7 | 0.00 | 0.00 | 0.00 | 69 | 1012.6 |
| 20260507005813 | 66 | 217 | 1.7 | 2.6 | 0.00 | 0.00 | 0.00 | 69 | 1012.1 |
| 20260507005310 | 67 | 282 | 2.6 | 4.3 | 0.00 | 0.00 | 0.00 | 68 | 1012.1 |
| 20260507004806 | 67 | 232 | 0.0 | 0.9 | 0.00 | 0.00 | 0.00 | 69 | 1012.1 |
| 20260507004304 | 67 | 322 | 0.0 | 0.0 | 0.00 | 0.00 | 0.00 | 69 | 1012.1 |
| 20260507003800 | 68 | 228 | 4.3 | 5.2 | 0.00 | 0.00 | 0.00 | 69 | 1012.6 |
| 20260507003255 | 68 | 202 | 0.9 | 1.7 | 0.00 | 0.00 | 0.00 | 68 | 1012.6 |
| 20260507002751 | 68 | 200 | 0.9 | 1.7 | 0.00 | 0.00 | 0.00 | 67 | 1012.1 |
| 20260507002247 | 69 | 142 | 0.0 | 0.0 | 0.00 | 0.00 | 0.00 | 68 | 1012.6 |
| 20260507001745 | 69 | 284 | 0.0 | 0.9 | 0.00 | 0.00 | 0.00 | 67 | 1012.1 |
| 20260507001242 | 69 | 289 | 0.0 | 0.0 | 0.00 | 0.00 | 0.00 | 68 | 1012.6 |
| 20260507000738 | 69 | 220 | 0.0 | 0.0 | 0.00 | 0.00 | 0.00 | 68 | 1012.6 |
| 20260507000234 | 70 | 236 | 1.7 | 2.6 | 0.00 | 0.00 | 0.00 | 65 | 1012.1 |
| 20260506235731 | 70 | 229 | 0.9 | 0.9 | 0.00 | 0.00 | 0.00 | 66 | 1012.6 |
| 20260506235226 | 71 | 247 | 1.7 | 1.7 | 0.00 | 0.00 | 0.00 | 65 | 1012.1 |
| 20260506234723 | 71 | 239 | 2.6 | 2.6 | 0.00 | 0.00 | 0.00 | 67 | 1012.1 |
| 20260506234221 | 72 | 231 | 2.6 | 2.6 | 0.00 | 0.00 | 0.00 | 64 | 1012.1 |
| 20260506233718 | 72 | 232 | 0.0 | 0.9 | 0.00 | 0.00 | 0.00 | 63 | 1012.1 |
| 20260506233214 | 71 | 227 | 0.0 | 0.9 | 0.00 | 0.00 | 0.00 | 64 | 1012.1 |
| 20260506232711 | 71 | 260 | 0.0 | 0.9 | 0.00 | 0.00 | 0.00 | 64 | 1012.1 |
| 20260506232206 | 71 | 330 | 0.0 | 0.9 | 0.00 | 0.00 | 0.00 | 63 | 1012.1 |
| 20260506231703 | 71 | 236 | 2.6 | 2.6 | 0.00 | 0.00 | 0.00 | 64 | 1012.1 |
| 20260506231202 | 72 | 236 | 0.9 | 1.7 | 0.00 | 0.00 | 0.00 | 64 | 1012.6 |
| 20260506230658 | 72 | 233 | 0.0 | 0.9 | 0.00 | 0.00 | 0.00 | 66 | 1012.6 |
| 20260506230155 | 72 | 227 | 1.7 | 2.6 | 0.00 | 0.00 | 0.00 | 67 | 1012.1 |
| 20260506225651 | 72 | 237 | 1.7 | 2.6 | 0.00 | 0.00 | 0.00 | 63 | 1012.6 |
| 20260506225149 | 72 | 262 | 2.6 | 2.6 | 0.00 | 0.00 | 0.00 | 64 | 1012.6 |
| 20260506224645 | 72 | 233 | 1.7 | 4.3 | 0.00 | 0.00 | 0.00 | 62 | 1012.6 |
| 20260506224141 | 72 | 93 | 0.9 | 1.7 | 0.00 | 0.00 | 0.00 | 62 | 1012.6 |
| 20260506223638 | 72 | 250 | 1.7 | 2.6 | 0.00 | 0.00 | 0.00 | 63 | 1012.6 |
| 20260506223134 | 73 | 228 | 2.6 | 2.6 | 0.00 | 0.00 | 0.00 | 64 | 1012.6 |
| 20260506222631 | 73 | 263 | 2.6 | 6.1 | 0.00 | 0.00 | 0.00 | 63 | 1012.9 |
| 20260506222127 | 73 | 237 | 0.9 | 0.9 | 0.00 | 0.00 | 0.00 | 64 | 1012.9 |
| 20260506221625 | 74 | 232 | 3.5 | 4.3 | 0.00 | 0.00 | 0.00 | 61 | 1012.9 |
| 20260506221123 | 73 | 205 | 0.9 | 1.7 | 0.00 | 0.00 | 0.00 | 61 | 1012.9 |
| 20260506220619 | 73 | 315 | 0.9 | 1.7 | 0.00 | 0.00 | 0.00 | 59 | 1012.9 |
| 20260506220114 | 73 | 215 | 0.9 | 1.7 | 0.00 | 0.00 | 0.00 | 60 | 1013.3 |
| 20260506215612 | 73 | 238 | 3.5 | 7.0 | 0.00 | 0.00 | 0.00 | 62 | 1013.3 |
| 20260506215107 | 74 | 243 | 0.9 | 1.7 | 0.00 | 0.00 | 0.00 | 59 | 1013.3 |
| 20260506214604 | 74 | 247 | 0.0 | 0.9 | 0.00 | 0.00 | 0.00 | 62 | 1013.3 |
| 20260506214101 | 74 | 213 | 3.5 | 5.2 | 0.00 | 0.00 | 0.00 | 61 | 1013.3 |
| 20260506213600 | 74 | 250 | 0.9 | 1.7 | 0.00 | 0.00 | 0.00 | 59 | 1013.3 |
| 20260506213056 | 74 | 231 | 0.0 | 0.9 | 0.00 | 0.00 | 0.00 | 62 | 1013.3 |
| 20260506212553 | 74 | 45 | 0.0 | 0.9 | 0.00 | 0.00 | 0.00 | 59 | 1013.3 |
| 20260506212048 | 73 | 222 | 0.0 | 0.9 | 0.00 | 0.00 | 0.00 | 59 | 1013.3 |
| 20260506211544 | 73 | 60 | 0.0 | 0.9 | 0.00 | 0.00 | 0.00 | 59 | 1013.3 |
| 20260506211042 | 74 | 241 | 1.7 | 2.6 | 0.00 | 0.00 | 0.00 | 60 | 1013.3 |
| 20260506210538 | 74 | 22 | 1.7 | 1.7 | 0.00 | 0.00 | 0.00 | 61 | 1013.3 |
| 20260506210035 | 74 | 203 | 2.6 | 4.3 | 0.00 | 0.00 | 0.00 | 62 | 1013.6 |
| 20260506205531 | 74 | 301 | 0.0 | 0.9 | 0.00 | 0.00 | 0.00 | 62 | 1013.3 |
| 20260506205027 | 74 | 238 | 0.9 | 1.7 | 0.00 | 0.00 | 0.00 | 61 | 1013.6 |
| 20260506204525 | 74 | 242 | 0.0 | 0.9 | 0.00 | 0.00 | 0.00 | 60 | 1013.6 |
| 20260506204021 | 74 | 290 | 0.9 | 1.7 | 0.00 | 0.00 | 0.00 | 60 | 1013.6 |
| 20260506203520 | 73 | 339 | 1.7 | 1.7 | 0.00 | 0.00 | 0.00 | 60 | 1013.6 |
| 20260506203016 | 73 | 243 | 1.7 | 1.7 | 0.00 | 0.00 | 0.00 | 61 | 1013.9 |
| 20260506202514 | 73 | 280 | 1.7 | 4.3 | 0.00 | 0.00 | 0.00 | 64 | 1013.6 |
| 20260506202009 | 73 | 245 | 3.5 | 5.2 | 0.00 | 0.00 | 0.00 | 60 | 1013.6 |
| 20260506201508 | 73 | 245 | 2.6 | 4.3 | 0.00 | 0.00 | 0.00 | 59 | 1013.9 |
| 20260506201004 | 73 | 350 | 1.7 | 2.6 | 0.00 | 0.00 | 0.00 | 60 | 1013.9 |
| 20260506200500 | 73 | 278 | 1.7 | 2.6 | 0.00 | 0.00 | 0.00 | 64 | 1013.9 |
| 20260506195956 | 73 | 217 | 0.9 | 1.7 | 0.00 | 0.00 | 0.00 | 63 | 1013.9 |
| 20260506195454 | 73 | 233 | 0.9 | 1.7 | 0.00 | 0.00 | 0.00 | 60 | 1013.9 |
| 20260506194950 | 73 | 210 | 6.1 | 8.7 | 0.00 | 0.00 | 0.00 | 62 | 1013.9 |
| 20260506194448 | 73 | 232 | 0.0 | 0.0 | 0.00 | 0.00 | 0.00 | 62 | 1013.9 |
| 20260506193944 | 73 | 238 | 1.7 | 2.6 | 0.00 | 0.00 | 0.00 | 58 | 1013.9 |
| 20260506193442 | 72 | 232 | 0.9 | 0.9 | 0.00 | 0.00 | 0.00 | 60 | 1013.9 |
| 20260506192938 | 72 | 216 | 0.0 | 0.9 | 0.00 | 0.00 | 0.00 | 61 | 1013.9 |
| 20260506192435 | 71 | 226 | 2.6 | 2.6 | 0.00 | 0.00 | 0.00 | 58 | 1013.9 |
| 20260506191932 | 71 | 243 | 0.9 | 1.7 | 0.00 | 0.00 | 0.00 | 57 | 1014.3 |
| 20260506191428 | 70 | 235 | 0.0 | 0.9 | 0.00 | 0.00 | 0.00 | 61 | 1014.3 |
| 20260506190925 | 70 | 231 | 2.6 | 4.3 | 0.00 | 0.00 | 0.00 | 63 | 1014.3 |
| 20260506190422 | 70 | 235 | 2.6 | 2.6 | 0.00 | 0.00 | 0.00 | 61 | 1014.3 |
| 20260506185918 | 69 | 237 | 1.7 | 2.6 | 0.00 | 0.00 | 0.00 | 60 | 1014.3 |
| 20260506185416 | 69 | 260 | 2.6 | 4.3 | 0.00 | 0.00 | 0.00 | 60 | 1014.3 |
| 20260506184913 | 70 | 229 | 3.5 | 4.3 | 0.00 | 0.00 | 0.00 | 63 | 1014.3 |
| 20260506184410 | 69 | 238 | 3.5 | 5.2 | 0.00 | 0.00 | 0.00 | 60 | 1014.6 |
| 20260506183907 | 69 | 236 | 3.5 | 5.2 | 0.00 | 0.00 | 0.00 | 62 | 1014.3 |
| 20260506183402 | 69 | 225 | 2.6 | 5.2 | 0.00 | 0.00 | 0.00 | 62 | 1014.3 |
| 20260506182900 | 69 | 232 | 3.5 | 4.3 | 0.00 | 0.00 | 0.00 | 64 | 1014.6 |
| 20260506182357 | 69 | 227 | 2.6 | 2.6 | 0.00 | 0.00 | 0.00 | 62 | 1014.6 |
| 20260506181854 | 68 | 297 | 0.9 | 2.6 | 0.00 | 0.00 | 0.00 | 64 | 1014.6 |
| 20260506181352 | 68 | 215 | 7.8 | 7.8 | 0.00 | 0.00 | 0.00 | 64 | 1014.6 |
| 20260506180849 | 68 | 224 | 1.7 | 2.6 | 0.00 | 0.00 | 0.00 | 61 | 1014.6 |
| 20260506180344 | 67 | 210 | 1.7 | 1.7 | 0.00 | 0.00 | 0.00 | 66 | 1014.6 |
| 20260506175841 | 67 | 219 | 0.0 | 0.9 | 0.00 | 0.00 | 0.00 | 67 | 1014.6 |
| 20260506175338 | 67 | 264 | 2.6 | 5.2 | 0.00 | 0.00 | 0.00 | 66 | 1014.6 |
| 20260506174835 | 67 | 230 | 1.7 | 2.6 | 0.00 | 0.00 | 0.00 | 66 | 1014.6 |
| 20260506174333 | 67 | 232 | 0.9 | 1.7 | 0.00 | 0.00 | 0.00 | 69 | 1014.6 |
| 20260506173830 | 67 | 224 | 1.7 | 2.6 | 0.00 | 0.00 | 0.00 | 67 | 1014.6 |
| 20260506173327 | 67 | 242 | 3.5 | 5.2 | 0.00 | 0.00 | 0.00 | 67 | 1014.6 |
| 20260506172824 | 67 | 212 | 3.5 | 5.2 | 0.00 | 0.00 | 0.00 | 67 | 1014.6 |
| 20260506172320 | 66 | 260 | 0.9 | 1.7 | 0.00 | 0.00 | 0.00 | 70 | 1014.6 |
| 20260506171818 | 66 | 222 | 4.3 | 6.1 | 0.00 | 0.00 | 0.00 | 66 | 1014.6 |
| 20260506171315 | 66 | 235 | 1.7 | 1.7 | 0.00 | 0.00 | 0.00 | 66 | 1014.6 |
| 20260506170813 | 65 | 248 | 1.7 | 2.6 | 0.00 | 0.00 | 0.00 | 64 | 1014.6 |
| 20260506170308 | 65 | 245 | 0.9 | 1.7 | 0.00 | 0.00 | 0.00 | 65 | 1014.6 |
| 20260506165808 | 65 | 225 | 1.7 | 2.6 | 0.00 | 0.00 | 0.00 | 64 | 1014.6 |
| 20260506165305 | 64 | 208 | 1.7 | 1.7 | 0.00 | 0.00 | 0.00 | 68 | 1014.6 |
| 20260506164801 | 64 | 239 | 1.7 | 2.6 | 0.00 | 0.00 | 0.00 | 69 | 1014.6 |
| 20260506164258 | 64 | 263 | 1.7 | 1.7 | 0.00 | 0.00 | 0.00 | 66 | 1014.6 |
| 20260506163755 | 64 | 236 | 0.9 | 1.7 | 0.00 | 0.00 | 0.00 | 70 | 1014.6 |
| 20260506163250 | 63 | 212 | 2.6 | 2.6 | 0.00 | 0.00 | 0.00 | 68 | 1014.6 |
| 20260506162746 | 63 | 293 | 0.9 | 0.9 | 0.00 | 0.00 | 0.00 | 66 | 1014.6 |
| 20260506162244 | 62 | 218 | 0.9 | 1.7 | 0.00 | 0.00 | 0.00 | 70 | 1014.6 |
| 20260506161741 | 62 | 223 | 0.9 | 1.7 | 0.00 | 0.00 | 0.00 | 70 | 1014.6 |
| 20260506161238 | 62 | 238 | 1.7 | 2.6 | 0.00 | 0.00 | 0.00 | 73 | 1014.6 |
| 20260506160736 | 62 | 236 | 2.6 | 2.6 | 0.00 | 0.00 | 0.00 | 73 | 1014.6 |
| 20260506160232 | 61 | 222 | 0.9 | 0.9 | 0.00 | 0.00 | 0.00 | 73 | 1014.6 |
| 20260506155731 | 61 | 188 | 0.0 | 0.0 | 0.00 | 0.00 | 0.00 | 72 | 1014.6 |
| 20260506155227 | 61 | 236 | 0.9 | 0.9 | 0.00 | 0.00 | 0.00 | 77 | 1014.3 |
| 20260506153329 | 61 | 264 | 1.7 | 1.7 | 0.00 | 0.00 | 0.00 | 76 | 1014.6 |
| 20260506152826 | 61 | 218 | 0.0 | 0.9 | 0.00 | 0.00 | 0.00 | 75 | 1014.6 |
| 20260506152323 | 60 | 257 | 0.0 | 0.9 | 0.00 | 0.00 | 0.00 | 74 | 1014.6 |
| 20260506151822 | 60 | 219 | 1.7 | 2.6 | 0.00 | 0.00 | 0.00 | 76 | 1014.6 |
| 20260506151318 | 60 | 199 | 0.9 | 1.7 | 0.00 | 0.00 | 0.00 | 75 | 1014.6 |
| 20260506150815 | 59 | 192 | 0.0 | 0.0 | 0.00 | 0.00 | 0.00 | 74 | 1014.6 |
| 20260506150312 | 59 | 168 | 0.0 | 0.9 | 0.00 | 0.00 | 0.00 | 78 | 1014.6 |
| 20260506145809 | 58 | 165 | 0.0 | 0.0 | 0.00 | 0.00 | 0.00 | 78 | 1014.6 |
| 20260506145306 | 57 | 194 | 0.0 | 0.9 | 0.00 | 0.00 | 0.00 | 79 | 1014.6 |
| 20260506144803 | 56 | 158 | 0.0 | 0.0 | 0.00 | 0.00 | 0.00 | 81 | 1014.6 |
| 20260506144259 | 56 | 130 | 0.0 | 0.9 | 0.00 | 0.00 | 0.00 | 83 | 1014.6 |
| 20260506143757 | 55 | 100 | 0.0 | 0.9 | 0.00 | 0.00 | 0.00 | 83 | 1014.6 |
| 20260506143254 | 55 | 122 | 0.9 | 1.7 | 0.00 | 0.00 | 0.00 | 83 | 1014.6 |
| 20260506142752 | 54 | 103 | 0.0 | 0.9 | 0.00 | 0.00 | 0.00 | 85 | 1014.6 |
| 20260506142250 | 53 | 91 | 0.0 | 0.0 | 0.00 | 0.00 | 0.00 | 86 | 1014.6 |
| 20260506141748 | 53 | 77 | 0.9 | 0.9 | 0.00 | 0.00 | 0.00 | 87 | 1014.6 |
| 20260506141246 | 52 | 62 | 0.9 | 1.7 | 0.00 | 0.00 | 0.00 | 88 | 1014.6 |
| 20260506140743 | 51 | 49 | 1.7 | 1.7 | 0.00 | 0.00 | 0.00 | 90 | 1014.3 |
| 20260506140240 | 51 | 95 | 0.0 | 0.9 | 0.00 | 0.00 | 0.00 | 91 | 1014.3 |
| 20260506135737 | 50 | 55 | 0.0 | 0.9 | 0.00 | 0.00 | 0.00 | 90 | 1014.3 |
| 20260506135233 | 50 | 54 | 0.0 | 0.0 | 0.00 | 0.00 | 0.00 | 92 | 1014.3 |
| 20260506134730 | 49 | 54 | 0.0 | 0.0 | 0.00 | 0.00 | 0.00 | 92 | 1014.3 |
| 20260506134227 | 49 | 49 | 0.9 | 1.7 | 0.00 | 0.00 | 0.00 | 93 | 1014.3 |
| 20260506133724 | 48 | 83 | 0.0 | 0.0 | 0.00 | 0.00 | 0.00 | 94 | 1014.3 |
| 20260506133220 | 48 | 34 | 1.7 | 2.6 | 0.00 | 0.00 | 0.00 | 95 | 1014.3 |
| 20260506132718 | 48 | 81 | 0.9 | 0.9 | 0.00 | 0.00 | 0.00 | 96 | 1014.3 |
| 20260506132214 | 49 | 62 | 0.0 | 0.0 | 0.00 | 0.00 | 0.00 | 98 | 1014.3 |
| 20260506131713 | 49 | 51 | 0.0 | 0.9 | 0.00 | 0.00 | 0.00 | 97 | 1014.3 |
| 20260506131208 | 49 | 23 | 0.9 | 0.9 | 0.00 | 0.00 | 0.00 | 96 | 1014.3 |
| 20260506130705 | 49 | 22 | 0.0 | 0.0 | 0.00 | 0.00 | 0.00 | 96 | 1013.9 |
| 20260506130202 | 49 | 44 | 1.7 | 1.7 | 0.00 | 0.00 | 0.00 | 93 | 1014.3 |
| 20260506125700 | 49 | 21 | 0.9 | 1.7 | 0.00 | 0.00 | 0.00 | 94 | 1013.9 |
| 20260506125158 | 49 | 17 | 0.9 | 1.7 | 0.00 | 0.00 | 0.00 | 94 | 1013.9 |
| 20260506124655 | 49 | 26 | 0.9 | 1.7 | 0.00 | 0.00 | 0.00 | 95 | 1013.9 |
| 20260506124153 | 49 | 30 | 1.7 | 1.7 | 0.00 | 0.00 | 0.00 | 95 | 1013.6 |
| 20260506123651 | 50 | 27 | 1.7 | 1.7 | 0.00 | 0.00 | 0.00 | 94 | 1013.6 |
| 20260506123149 | 50 | 42 | 0.9 | 1.7 | 0.00 | 0.00 | 0.00 | 94 | 1013.6 |
| 20260506122646 | 50 | 35 | 1.7 | 1.7 | 0.00 | 0.00 | 0.00 | 94 | 1013.6 |
| 20260506122143 | 50 | 34 | 2.6 | 2.6 | 0.00 | 0.00 | 0.00 | 94 | 1013.6 |
| 20260506121641 | 50 | 35 | 3.5 | 4.3 | 0.00 | 0.00 | 0.00 | 95 | 1013.6 |
| 20260506121137 | 50 | 43 | 1.7 | 2.6 | 0.00 | 0.00 | 0.00 | 93 | 1013.6 |
| 20260506120635 | 50 | 33 | 2.6 | 2.6 | 0.00 | 0.00 | 0.00 | 93 | 1013.6 |
| 20260506120132 | 50 | 30 | 2.6 | 2.6 | 0.00 | 0.00 | 0.00 | 93 | 1013.6 |
| 20260506115631 | 50 | 12 | 0.0 | 0.9 | 0.00 | 0.00 | 0.00 | 93 | 1013.6 |
| 20260506115128 | 50 | 32 | 0.9 | 1.7 | 0.00 | 0.00 | 0.00 | 93 | 1013.6 |
| 20260506114625 | 50 | 29 | 0.9 | 0.9 | 0.00 | 0.00 | 0.00 | 93 | 1013.6 |
| 20260506114123 | 50 | 31 | 0.9 | 0.9 | 0.00 | 0.00 | 0.00 | 93 | 1013.6 |
| 20260506113621 | 49 | 14 | 0.9 | 0.9 | 0.00 | 0.00 | 0.00 | 94 | 1013.6 |
| 20260506113118 | 49 | 30 | 0.9 | 1.7 | 0.00 | 0.00 | 0.00 | 94 | 1013.6 |
| 20260506112614 | 49 | 31 | 2.6 | 2.6 | 0.00 | 0.00 | 0.00 | 94 | 1013.6 |
| 20260506112112 | 49 | 26 | 0.0 | 0.0 | 0.00 | 0.00 | 0.00 | 95 | 1013.3 |
| 20260506111610 | 49 | 316 | 0.0 | 0.0 | 0.00 | 0.00 | 0.00 | 97 | 1013.3 |
| 20260506111107 | 49 | 317 | 0.0 | 0.0 | 0.00 | 0.00 | 0.00 | 96 | 1013.6 |
| 20260506110605 | 49 | 311 | 0.0 | 0.0 | 0.00 | 0.00 | 0.00 | 96 | 1013.3 |
| 20260506105558 | 49 | 325 | 0.0 | 0.0 | 0.00 | 0.00 | 0.00 | 96 | 1013.3 |
| 20260506105055 | 49 | 6 | 0.0 | 0.9 | 0.00 | 0.00 | 0.00 | 96 | 1013.6 |
| 20260506104553 | 49 | 44 | 3.5 | 4.3 | 0.00 | 0.00 | 0.00 | 95 | 1013.6 |
| 20260506104051 | 50 | 34 | 0.9 | 0.9 | 0.00 | 0.00 | 0.00 | 95 | 1013.3 |
| 20260506103548 | 50 | 24 | 0.9 | 2.6 | 0.00 | 0.00 | 0.00 | 96 | 1013.3 |
| 20260506103044 | 50 | 51 | 0.0 | 0.0 | 0.00 | 0.00 | 0.00 | 96 | 1013.3 |
| 20260506102543 | 50 | 47 | 0.0 | 0.9 | 0.00 | 0.00 | 0.00 | 95 | 1013.3 |
| 20260506102040 | 50 | 50 | 0.9 | 0.9 | 0.00 | 0.00 | 0.00 | 94 | 1013.3 |
| 20260506101536 | 51 | 46 | 2.6 | 2.6 | 0.00 | 0.00 | 0.00 | 94 | 1013.3 |
| 20260506101033 | 51 | 44 | 2.6 | 4.3 | 0.00 | 0.00 | 0.00 | 94 | 1013.3 |
| 20260506100532 | 51 | 34 | 1.7 | 2.6 | 0.00 | 0.00 | 0.00 | 93 | 1013.6 |
| 20260506100030 | 50 | 35 | 2.6 | 2.6 | 0.00 | 0.00 | 0.00 | 93 | 1013.6 |
| 20260506095528 | 50 | 30 | 2.6 | 2.6 | 0.00 | 0.00 | 0.00 | 95 | 1013.6 |
| 20260506095024 | 50 | 32 | 1.7 | 1.7 | 0.00 | 0.00 | 0.00 | 95 | 1013.6 |
| 20260506094522 | 50 | 22 | 0.9 | 1.7 | 0.00 | 0.00 | 0.00 | 96 | 1013.6 |
| 20260506094020 | 50 | 11 | 1.7 | 1.7 | 0.00 | 0.00 | 0.00 | 96 | 1013.6 |
| 20260506093518 | 51 | 25 | 1.7 | 2.6 | 0.00 | 0.00 | 0.00 | 96 | 1013.6 |
| 20260506093015 | 51 | 15 | 0.0 | 0.9 | 0.00 | 0.00 | 0.00 | 96 | 1013.6 |
| 20260506092513 | 51 | 22 | 0.9 | 0.9 | 0.00 | 0.00 | 0.00 | 95 | 1013.9 |
| 20260506092009 | 51 | 41 | 2.6 | 4.3 | 0.00 | 0.00 | 0.00 | 96 | 1013.9 |
| 20260506091508 | 51 | 35 | 1.7 | 1.7 | 0.00 | 0.00 | 0.00 | 96 | 1013.9 |
| 20260506091004 | 51 | 51 | 1.7 | 1.7 | 0.00 | 0.00 | 0.00 | 96 | 1013.9 |
| 20260506090502 | 51 | 51 | 2.6 | 2.6 | 0.00 | 0.00 | 0.00 | 96 | 1013.9 |
| 20260506085958 | 51 | 21 | 0.9 | 1.7 | 0.00 | 0.00 | 0.00 | 96 | 1013.9 |
| 20260506085455 | 51 | 42 | 0.9 | 0.9 | 0.00 | 0.00 | 0.00 | 96 | 1013.9 |
| 20260506084951 | 51 | 56 | 0.9 | 1.7 | 0.00 | 0.00 | 0.00 | 96 | 1013.6 |
| 20260506084448 | 51 | 41 | 2.6 | 2.6 | 0.00 | 0.00 | 0.00 | 96 | 1013.9 |
| 20260506083945 | 51 | 35 | 1.7 | 1.7 | 0.00 | 0.00 | 0.00 | 97 | 1013.9 |
| 20260506083442 | 50 | 47 | 1.7 | 2.6 | 0.00 | 0.00 | 0.00 | 97 | 1013.9 |
| 20260506082939 | 50 | 21 | 0.9 | 1.7 | 0.00 | 0.00 | 0.00 | 98 | 1014.3 |
| 20260506082436 | 50 | 33 | 0.0 | 0.0 | 0.00 | 0.00 | 0.00 | 98 | 1014.3 |
| 20260506081932 | 50 | 28 | 0.0 | 0.9 | 0.00 | 0.00 | 0.00 | 98 | 1013.9 |
| 20260506081431 | 51 | 14 | 0.0 | 0.9 | 0.00 | 0.00 | 0.00 | 98 | 1013.9 |
| 20260506080927 | 51 | 33 | 1.7 | 2.6 | 0.00 | 0.00 | 0.00 | 98 | 1013.9 |
| 20260506080424 | 51 | 68 | 0.0 | 0.9 | 0.00 | 0.00 | 0.00 | 98 | 1013.9 |
| 20260506073408 | 51 | 44 | 3.5 | 4.3 | 0.00 | 0.00 | 0.00 | 97 | 1014.3 |
| 20260506072905 | 51 | 48 | 2.6 | 4.3 | 0.00 | 0.00 | 0.00 | 96 | 1013.9 |
| 20260506072403 | 51 | 55 | 2.6 | 2.6 | 0.00 | 0.00 | 0.00 | 97 | 1013.9 |
| 20260506071900 | 51 | 52 | 2.6 | 2.6 | 0.00 | 0.00 | 0.00 | 97 | 1013.9 |
| 20260506071358 | 50 | 63 | 2.6 | 4.3 | 0.00 | 0.00 | 0.00 | 98 | 1013.9 |
| 20260506070854 | 50 | 49 | 3.5 | 4.3 | 0.00 | 0.00 | 0.00 | 98 | 1013.9 |
| 20260506070352 | 51 | 35 | 0.9 | 1.7 | 0.00 | 0.00 | 0.00 | 98 | 1013.6 |
| 20260506062329 | 52 | 38 | 2.6 | 2.6 | 0.00 | 0.00 | 0.00 | 99 | 1013.3 |
| 20260506061825 | 52 | 35 | 2.6 | 2.6 | 0.00 | 0.00 | 0.00 | 99 | 1013.3 |
| 20260506061322 | 52 | 20 | 0.0 | 0.9 | 0.00 | 0.00 | 0.00 | 99 | 1013.3 |
| 20260506060820 | 52 | 35 | 1.7 | 1.7 | 0.00 | 0.00 | 0.00 | 99 | 1013.3 |
| 20260506060318 | 52 | 27 | 1.7 | 1.7 | 0.00 | 0.00 | 0.00 | 99 | 1013.3 |
| 20260506051249 | 53 | 20 | 0.0 | 0.0 | 0.00 | 0.00 | 0.00 | 99 | 1012.9 |
| 20260506050747 | 53 | 39 | 0.9 | 2.6 | 0.00 | 0.00 | 0.00 | 98 | 1012.9 |
| 20260506050244 | 53 | 54 | 0.9 | 0.9 | 0.00 | 0.00 | 0.00 | 98 | 1012.9 |
| 20260506044735 | 54 | 14 | 0.0 | 0.0 | 0.00 | 0.00 | 0.00 | 97 | 1012.6 |
| 20260506044232 | 54 | 35 | 0.0 | 0.0 | 0.00 | 0.00 | 0.00 | 97 | 1012.6 |
| 20260506043729 | 55 | 329 | 0.0 | 0.0 | 0.00 | 0.00 | 0.00 | 96 | 1012.6 |
| 20260506043227 | 55 | 329 | 0.0 | 0.0 | 0.00 | 0.00 | 0.00 | 96 | 1012.6 |